Weather History for Rexburg, ID

Change the Weather History Date:

Sunday, March 3, 2013

  Actual Average Record
Temperature  
Mean Temperature 34 °F 28 °F  
Max Temperature 40 °F 39 °F 50 °F (2006)
Min Temperature 27 °F 18 °F -12 °F (2002)
Degree Days  
Heating Degree Days 31 37  
Month to date heating degree days 97 112  
Since 1 July heating degree days 5764 6085  
Cooling Degree Days 0 0  
Month to date cooling degree days 0 0  
Year to date cooling degree days 0 0  
Moisture  
Dew Point 27 °F    
Average Humidity 67    
Maximum Humidity 92    
Minimum Humidity 42    
Precipitation  
Precipitation T in 0.03 in 0.37 in (2009)
Month to date precipitation T 0.09  
Year to date precipitation 1.58 1.66  
Sea Level Pressure  
Sea Level Pressure 29.90 in    
Wind  
Wind Speed 11 mph (SW)    
Max Wind Speed 12 mph    
Max Gust Speed 16 mph    
Visibility 10 miles    
Events Rain , Snow    
T = Trace of Precipitation, MM = Missing Value Source: NWS Daily Summary

Daily Weather History Graph

Daily Weather History Graph

Search for Another Location

Airport:

Trip Planner

Search our weather history database for the weather conditions in past years. The results will help you decide how hot, cold, wet, or windy it might be!

Date:

Astronomy

Mar. 03, 2013 Rise Set
Actual Time 7:00 AM MST 6:18 PM MST
Civil Twilight 6:31 AM MST 6:47 PM MST
Nautical Twilight 5:57 AM MST 7:20 PM MST
Astronomical Twilight 5:24 AM MST 7:54 PM MST
Moon 12:13 AM MST (3/3) 10:05 AM MST (3/3)
Length of Visible Light 12h 16m
Length of Day
11h 18m
Waning Gibbous, 63% of the Moon is Illuminated
Mar 3
Waning Gibbous
Mar 4
Last Quarter
Mar 11
New
Mar 19
First Quarter
Mar 27
Full

Hourly Weather History & Observations

Time (MST) Temp. Windchill Dew Point Humidity Pressure Visibility Wind Dir Wind Speed Gust Speed Precip Events Conditions
12:53 AM 32.0 °F 27.5 °F 30.9 °F 96% 30.06 in 7.0 mi North 4.6 mph - N/A   Overcast
1:53 AM 33.1 °F - 30.0 °F 89% 30.05 in 9.0 mi Calm Calm - 0.00 in Rain Light Rain
2:53 AM 33.1 °F 26.9 °F 30.9 °F 92% 30.01 in 10.0 mi East 6.9 mph - 0.00 in   Overcast
5:53 AM 33.1 °F - 30.9 °F 92% 29.96 in 10.0 mi Calm Calm - N/A   Overcast
6:53 AM 33.1 °F - 30.9 °F 92% 29.95 in 10.0 mi Calm Calm - N/A   Overcast
7:53 AM 35.1 °F 28.6 °F 30.9 °F 85% 29.92 in 10.0 mi South 8.1 mph - N/A   Overcast
8:53 AM 36.0 °F 27.5 °F 30.9 °F 82% 29.90 in 10.0 mi SSW 12.7 mph - N/A   Overcast
9:43 AM 37.4 °F 27.5 °F 32.0 °F 81% 29.84 in 10.0 mi SSW 18.4 mph 24.2 mph N/A   Overcast
9:53 AM 37.9 °F 29.6 °F 32.0 °F 79% 29.88 in 10.0 mi SSW 13.8 mph 18.4 mph N/A   Overcast
10:53 AM 37.0 °F 26.2 °F 33.1 °F 86% 29.87 in 10.0 mi SSW 21.9 mph 28.8 mph N/A   Overcast
11:11 AM 37.4 °F 26.6 °F 33.8 °F 87% 29.83 in 10.0 mi SW 21.9 mph 33.4 mph N/A   Overcast
11:53 AM 36.0 °F 25.6 °F 33.1 °F 89% 29.85 in 10.0 mi SW 18.4 mph 25.3 mph N/A   Overcast
12:53 PM 37.0 °F 25.9 °F 32.0 °F 82% 29.83 in 10.0 mi SW 23.0 mph 29.9 mph N/A   Overcast
1:29 PM 37.4 °F 27.2 °F 32.0 °F 81% 29.77 in 10.0 mi SW 19.6 mph 28.8 mph N/A   Overcast
1:53 PM 37.9 °F 27.9 °F 33.1 °F 83% 29.79 in 10.0 mi SW 19.6 mph 27.6 mph N/A   Overcast
2:53 PM 39.0 °F 28.3 °F 32.0 °F 76% 29.76 in 10.0 mi SW 24.2 mph 32.2 mph N/A   Scattered Clouds
3:53 PM 39.0 °F 27.6 °F 30.0 °F 70% 29.75 in 10.0 mi SW 27.6 mph 39.1 mph N/A   Clear
4:53 PM 37.9 °F 27.1 °F 28.0 °F 68% 29.79 in 10.0 mi SW 23.0 mph 35.7 mph N/A   Mostly Cloudy
5:53 PM 33.1 °F 21.5 °F 25.0 °F 72% 29.87 in 7.0 mi NNE 19.6 mph 26.5 mph 0.00 in Snow Light Snow
6:53 PM 32.0 °F 26.4 °F 21.9 °F 66% 29.91 in 10.0 mi NE 5.8 mph - 0.00 in   Overcast
7:53 PM 30.9 °F 27.5 °F 19.9 °F 64% 29.95 in 10.0 mi East 3.5 mph - N/A   Overcast
8:53 PM 32.0 °F - 15.1 °F 50% 29.96 in 10.0 mi Calm Calm - N/A   Overcast
9:53 PM 30.0 °F 25.2 °F 10.0 °F 43% 29.99 in 10.0 mi NNW 4.6 mph - N/A   Overcast
10:53 PM 28.0 °F 19.3 °F 8.1 °F 43% 30.01 in 10.0 mi North 9.2 mph - N/A   Overcast
11:53 PM 27.0 °F 19.5 °F 9.0 °F 47% 30.02 in 10.0 mi NW 6.9 mph - N/A   Overcast